User: anonymous   Login
Location: Unspecified
(0.0000°N, 0.0000°E)
Time: 14:56:24
(UTC+01:00)
Language:

Landsat 4 - Orbit

View from above orbital plane
View from above orbital plane
View from above satellite
View from above satellite

Ground track
Ground track

The orbit data is extracted from the following two-line orbital elements,

1 13367U 82072A   17081.94880314 +.00000976 +00000-0 +55231-4 0  9995
2 13367 098.2385 237.3932 0014362 130.8544 343.0409 15.15723715297274
Epoch (UTC): 22 March 2017 22:46:16
Eccentricity: 0.0014362
inclination: 98.2385°
perigee height: 509 km
apogee height: 528 km
right ascension of ascending node: 237.3932°
argument of perigee: 130.8544°
revolutions per day: 15.15723715
mean anomaly at epoch: 343.0409°
orbit number at epoch: 29727

The dashed part of the orbit path shows where the satellite is in the earth's shadow,  

DLR